[[{"header":{"parameterUnit":"m.s-1","parameterCategory":2,"la1":30.2991,"la2":30.254,"lo1":-89.0895,"lo2":-89.0444,"dy":0.0017,"dx":0.0017,"nx":28,"ny":28,"refTime":"2025-05-27T21:00:00:Z","depth":"0","parameterNumber":2,"parameterNumberName":"U-component_of_CURRENTS"},"data":[0,0,0,0,0,0,0,0,0,0,0,0,0,0,0,0,0,0,0,0,0,0,0,0,0,0,0,0,0,0,0,0,0,0,0,0,0,0,0,0,0,0,0,0,0,0,0,0,0,0,0,0,0,0,0,0,0,0,-0.3518,-0.352,0,-0.3696,-0.3698,-0.3699,-0.3768,-0.3768,-0.3768,-0.3768,-0.3833,-0.3835,-0.3837,0,0,0,0,0,0,0,0,0,0,0,0,0,-0.3274,-0.3277,-0.3517,-0.352,-0.3523,-0.3696,-0.3698,-0.37,-0.3768,-0.3768,-0.3768,-0.3768,-0.3833,-0.3835,-0.3837,0,0,0,0,0,0,0,0,0,0,0,0,0,-0.3404,-0.3278,-0.3517,-0.3582,-0.359,-0.3696,-0.3698,-0.37,-0.3768,-0.3768,-0.3768,-0.3768,-0.3832,-0.3835,-0.3837,-0.3855,0,0,-0.3845,-0.3847,0,0,0,0,0,0,0,0,-0.3396,-0.3412,-0.3569,-0.3577,-0.3587,-0.3714,-0.3636,-0.3748,-0.3768,-0.3695,-0.3768,-0.3768,-0.3786,-0.3793,-0.3821,-0.3858,-0.3861,-0.3846,-0.3847,-0.3848,-0.3849,0,0,0,0,0,0,0,-0.3387,-0.3405,-0.3583,-0.3572,-0.3583,-0.3615,-0.3632,-0.3658,-0.3733,-0.3702,-0.3708,-0.3736,-0.3789,-0.3818,-0.3823,-0.3862,-0.3846,-0.3848,-0.385,-0.3851,-0.3769,-0.3765,0,0,0,0,0,0,-0.3374,-0.3397,-0.3578,-0.3589,-0.3495,-0.362,-0.3639,-0.3669,-0.3735,-0.3748,-0.3736,-0.3739,-0.3814,-0.382,-0.3825,-0.3743,-0.3848,-0.3851,-0.3852,-0.3773,-0.3768,-0.3764,0,0,0,0,0,0,-0.3368,-0.3388,-0.3571,-0.35,-0.3526,-0.3624,-0.3658,-0.3673,-0.3706,-0.3764,-0.3773,-0.3753,-0.3814,-0.3821,-0.3821,-0.375,-0.3852,-0.3854,-0.3777,-0.3771,-0.3766,-0.3646,0,0,0,0,0,0,-0.336,-0.3385,-0.3398,-0.35,-0.353,-0.3591,-0.3659,-0.3677,-0.3725,-0.373,-0.3781,-0.3788,-0.3814,-0.3816,-0.3823,-0.3755,-0.3857,-0.3782,-0.3774,-0.3768,-0.3655,-0.3637,-0.3622,0,0,0,0,0,-0.3351,-0.3368,-0.3397,-0.3419,-0.3546,-0.359,-0.3606,-0.3673,-0.3726,-0.3709,-0.3752,-0.3786,-0.3774,-0.3817,-0.3826,-0.3756,-0.3785,-0.3776,-0.3768,-0.3662,-0.3641,-0.3622,0,0,0,0,0,0,-0.3278,-0.338,-0.3414,-0.3464,-0.3503,-0.3602,-0.3617,-0.3672,-0.3702,-0.3712,-0.3771,-0.3778,-0.3729,-0.3765,-0.3811,-0.3704,-0.3772,-0.3765,-0.3688,-0.3669,-0.3652,-0.3688,-0.3859,0,0,0,0,0,-0.3267,-0.3299,-0.3385,-0.3418,-0.3439,-0.3529,-0.3562,-0.3603,-0.3654,-0.367,-0.3697,-0.3714,-0.3701,-0.3708,-0.3693,-0.3676,-0.3708,-0.3622,-0.3605,-0.3592,-0.362,-0.3596,-0.3582,-0.3736,-0.3736,-0.3736,0,0,-0.3251,-0.3311,-0.3331,-0.3403,-0.3451,-0.3468,-0.3546,-0.3582,-0.3587,-0.3669,-0.366,-0.3655,-0.3678,-0.3624,-0.3606,-0.3654,-0.3554,-0.3581,-0.3569,-0.3607,-0.3586,-0.3572,-0.3559,-0.373,-0.3731,-0.3732,0,0,-0.3221,-0.3281,-0.3287,-0.3317,-0.3377,-0.3422,-0.3428,-0.3497,-0.3509,-0.3508,-0.3541,-0.351,-0.3514,-0.3503,-0.3507,-0.34,-0.3454,-0.337,-0.3341,-0.3314,-0.3303,-0.3294,-0.3284,-0.3275,-0.3379,-0.3379,-0.3379,0,-0.3195,-0.3233,-0.3288,-0.3298,-0.3335,-0.3397,-0.3408,-0.342,-0.3468,-0.348,-0.3474,-0.3457,-0.3455,-0.3426,-0.3369,-0.3364,-0.3375,-0.342,-0.3297,-0.3289,-0.3281,-0.3274,-0.3266,-0.3372,-0.3373,-0.3373,-0.3374,0,-0.3165,-0.3198,-0.3202,-0.3238,-0.3264,-0.3281,-0.3319,-0.3316,-0.3341,-0.3363,-0.3317,-0.3302,-0.3314,-0.3258,-0.3291,-0.3221,-0.3251,-0.3267,-0.336,-0.3259,-0.3256,-0.325,-0.3362,-0.3365,-0.3367,-0.3368,0,0,-0.3098,-0.3171,-0.3168,-0.32,-0.3246,-0.3273,-0.3261,-0.3284,-0.3302,-0.3262,-0.3274,-0.3192,-0.3205,-0.3209,-0.3207,-0.3172,-0.3092,-0.3201,-0.3203,-0.3214,-0.3049,-0.2914,-0.2895,-0.3092,-0.3091,-0.309,-0.3058,0,-0.3058,-0.3082,-0.3126,-0.3146,-0.3171,-0.3229,-0.3226,-0.3248,-0.3249,-0.3248,-0.3217,-0.3205,-0.318,-0.3183,-0.3134,-0.3126,-0.3075,-0.3101,-0.3128,-0.3129,-0.3039,-0.2882,-0.2765,-0.2713,-0.3052,-0.3051,-0.3051,0,-0.2999,-0.3041,-0.3061,-0.315,-0.3166,-0.3177,-0.3228,-0.3235,-0.324,-0.3247,-0.3228,-0.3224,-0.3185,-0.3162,-0.3094,-0.3119,-0.3073,-0.3042,-0.3041,-0.2967,-0.2981,-0.2871,-0.2689,-0.2683,-0.3042,-0.3042,-0.3043,0,-0.2927,-0.2994,-0.3023,-0.3048,-0.3135,-0.316,-0.3202,-0.3226,-0.3256,-0.3257,-0.3284,-0.3232,-0.3239,-0.3161,-0.3091,-0.3106,-0.3003,-0.3025,-0.2852,-0.2844,-0.2778,-0.2765,-0.2617,-0.2941,-0.2941,-0.2942,-0.2942,0,-0.287,-0.2886,-0.2999,-0.3013,-0.3065,-0.3137,-0.3174,-0.3208,-0.3259,-0.3279,-0.329,-0.3271,-0.324,-0.3181,-0.3095,-0.294,-0.3006,-0.282,-0.2806,-0.2724,-0.2707,-0.2729,-0.2782,-0.294,-0.2941,-0.2941,-0.2941,0,-0.2754,-0.2829,-0.2872,-0.2983,-0.3029,-0.3057,-0.3187,-0.323,-0.3279,-0.3308,-0.3324,-0.3332,-0.3228,-0.3158,-0.3041,-0.2954,-0.2758,-0.274,-0.2645,-0.2616,-0.2427,-0.2477,-0.237,-0.2298,-0.2551,-0.2547,-0.2544,0,-0.2688,-0.2698,-0.2831,-0.29,-0.2952,-0.3033,-0.3114,-0.3212,-0.3272,-0.33,-0.3323,-0.3257,-0.3093,-0.289,-0.2749,-0.2561,-0.2588,-0.239,-0.2364,-0.2359,-0.241,-0.2466,-0.242,-0.2238,-0.2233,-0.2228,-0.2225,0,-0.2556,-0.2604,-0.2672,-0.2822,-0.2928,-0.3001,-0.3117,-0.3133,-0.3228,-0.316,-0.3015,-0.2858,-0.2759,-0.2487,-0.2352,-0.2232,-0.2338,-0.2288,-0.231,-0.2149,-0.218,-0.2123,-0.2351,-0.2184,-0.2188,-0.2191,-0.2194,-0.2195,-0.2452,-0.2492,-0.2618,-0.2746,-0.2858,-0.2881,-0.2792,-0.286,-0.2745,-0.2494,-0.2564,-0.2148,-0.23,-0.203,-0.1947,-0.1888,-0.1978,-0.1847,-0.1913,-0.1974,-0.1868,-0.1989,-0.1782,-0.1783,-0.1785,-0.1786,-0.1787,0,-0.2304,-0.2413,-0.2554,-0.2651,-0.2666,-0.276,-0.274,-0.2531,-0.2187,-0.1985,-0.165,-0.1439,-0.1391,-0.154,-0.1661,-0.158,-0.1569,-0.1566,-0.1655,-0.1624,-0.174,-0.1685,-0.1413,-0.1413,-0.1413,-0.1413,-0.1413,-0.1413,-0.225,-0.2326,-0.2435,-0.2429,-0.2453,-0.2232,-0.2089,-0.1772,-0.1513,-0.0905,-0.0578,-0.0455,-0.0922,-0.1487,-0.1593,-0.1508,-0.1513,-0.1446,-0.1496,-0.1636,-0.167,-0.1703,-0.1659,-0.1386,-0.1386,-0.1315,-0.1315,-0.1314]},{"header":{"parameterUnit":"m.s-1","parameterCategory":2,"la1":30.2991,"la2":30.254,"lo1":-89.0895,"lo2":-89.0444,"dy":0.0017,"dx":0.0017,"nx":28,"ny":28,"refTime":"2025-05-27T21:00:00:Z","depth":"0","parameterNumber":3,"parameterNumberName":"V-component_of_CURRENTS"},"data":[0,0,0,0,0,0,0,0,0,0,0,0,0,0,0,0,0,0,0,0,0,0,0,0,0,0,0,0,0,0,0,0,0,0,0,0,0,0,0,0,0,0,0,0,0,0,0,0,0,0,0,0,0,0,0,0,0,0,-0.0484,-0.0482,0,-0.029,-0.0287,-0.0284,-0.0169,-0.0169,-0.0169,-0.0169,0.0195,0.0204,0.0214,0,0,0,0,0,0,0,0,0,0,0,0,0,-0.0575,-0.0574,-0.0484,-0.0482,-0.048,-0.029,-0.0287,-0.0284,-0.0169,-0.0169,-0.0169,-0.0169,0.0191,0.0203,0.0214,0,0,0,0,0,0,0,0,0,0,0,0,0,-0.0469,-0.0574,-0.0485,-0.0404,-0.0395,-0.0291,-0.0287,-0.0283,-0.0169,-0.0169,-0.0169,-0.0169,0.0188,0.0202,0.0216,0.0304,0,0,0.026,0.0266,0,0,0,0,0,0,0,0,-0.0476,-0.0465,-0.0418,-0.0409,-0.0399,-0.0258,-0.0185,-0.008,-0.0169,-0.025,-0.0169,-0.0169,0.0056,0.0081,0.0122,0.0321,0.0337,0.0261,0.027,0.0276,0.0281,0,0,0,0,0,0,0,-0.0483,-0.0472,-0.0402,-0.0416,-0.0405,-0.0315,-0.0301,-0.0164,-0.0093,-0.0243,-0.0235,-0.0221,0.0063,0.0108,0.0132,0.0342,0.0261,0.0274,0.0283,0.0289,0.0547,0.0546,0,0,0,0,0,0,-0.0527,-0.048,-0.0408,-0.0397,-0.0444,-0.0315,-0.0299,-0.0299,-0.0098,-0.007,-0.0222,-0.0217,0.0083,0.0115,0.0145,0.0185,0.0276,0.029,0.0298,0.0549,0.0547,0.0545,0,0,0,0,0,0,-0.053,-0.0523,-0.0416,-0.0437,-0.0418,-0.0315,-0.0315,-0.0296,-0.0253,-0.0085,-0.0052,-0.0202,0.0084,0.0125,0.0238,0.0203,0.0296,0.031,0.0551,0.0548,0.0546,0.0314,0,0,0,0,0,0,-0.0533,-0.0525,-0.0534,-0.0441,-0.0418,-0.0378,-0.0315,-0.0292,-0.0247,-0.0239,-0.0056,-0.0022,0.0087,0.0215,0.0252,0.0224,0.0321,0.0554,0.055,0.0547,0.0323,0.0303,0.0286,0,0,0,0,0,-0.0538,-0.0552,-0.0536,-0.0526,-0.0437,-0.0379,-0.0359,-0.0281,-0.0247,-0.0239,-0.0127,-0.0028,0.0219,0.0226,0.027,0.0245,0.0555,0.0551,0.0547,0.0332,0.0307,0.0286,0,0,0,0,0,0,-0.059,-0.0539,-0.052,-0.0517,-0.0467,-0.0362,-0.0342,-0.0291,-0.0195,-0.0181,-0.0025,0.0016,0.0087,0.0205,0.0209,0.0305,0.0395,0.0399,0.0216,0.0195,0.0176,0.0173,0.0333,0,0,0,0,0,-0.0612,-0.0613,-0.0548,-0.0548,-0.0529,-0.0438,-0.0402,-0.0356,-0.0263,-0.0221,-0.0104,0.0017,0.0107,0.018,0.0281,0.0367,0.0464,0.037,0.0351,0.0335,0.0359,0.0421,0.0409,0.0532,0.0532,0.0532,0,0,-0.063,-0.0604,-0.0603,-0.056,-0.0509,-0.0489,-0.0415,-0.0376,-0.0356,-0.0191,-0.0125,-0.0039,0.0111,0.0171,0.0216,0.0271,0.035,0.0329,0.0314,0.0349,0.0415,0.0403,0.0393,0.0529,0.0529,0.053,0,0,-0.0669,-0.0651,-0.0663,-0.0632,-0.058,-0.0528,-0.0529,-0.0442,-0.0402,-0.0329,-0.0237,-0.0174,0.0001,0.0072,0.0139,0.0091,0.0234,0.0113,0.0042,0.0097,0.0088,0.0081,0.0178,0.0181,0.0118,0.0117,0.0117,0,-0.0695,-0.0707,-0.0655,-0.0657,-0.0646,-0.0559,-0.057,-0.0509,-0.0401,-0.038,-0.0336,-0.0162,-0.0048,0.0016,-0.0013,0.0049,0.0121,0.0108,0.0071,0.0066,0.0063,0.0165,0.0172,0.0106,0.0107,0.0108,0.0109,0,-0.0736,-0.0748,-0.0753,-0.0737,-0.0716,-0.0712,-0.0644,-0.062,-0.0566,-0.0505,-0.0447,-0.0314,-0.0213,-0.0191,-0.0099,-0.0082,-0.0011,0.002,0.012,0.0036,0.0149,0.0161,0.0089,0.0093,0.0097,0.01,0,0,-0.0795,-0.0789,-0.0791,-0.0827,-0.0767,-0.0773,-0.0743,-0.071,-0.0725,-0.0611,-0.0604,-0.0474,-0.0418,-0.0339,-0.0248,-0.0182,-0.0157,-0.0094,-0.0086,-0.0009,-0.0003,0.0103,0.0128,-0.0144,-0.0143,-0.0143,0.0081,0,-0.0849,-0.0905,-0.0867,-0.0927,-0.0961,-0.0896,-0.0898,-0.0855,-0.0799,-0.0768,-0.0631,-0.059,-0.0469,-0.0457,-0.037,-0.02,-0.0134,-0.0217,0.0082,0.0093,0.0186,0.0141,0.0212,0.0422,0.0093,0.0095,0.0097,0,-0.0901,-0.0946,-0.1017,-0.1081,-0.109,-0.1108,-0.1137,-0.1124,-0.1038,-0.0995,-0.0901,-0.0789,-0.0647,-0.0571,-0.0291,-0.035,-0.0194,-0.0061,-0.005,0.015,0.022,0.0459,0.0457,0.0635,0.0116,0.0115,0.0113,0,-0.1003,-0.1056,-0.1138,-0.115,-0.1186,-0.1226,-0.1244,-0.1204,-0.1215,-0.1143,-0.111,-0.0942,-0.0811,-0.0624,-0.0283,-0.0314,0.0041,0.0024,0.027,0.0281,0.0459,0.0485,0.0664,0.0178,0.0177,0.0177,0.0176,0,-0.1086,-0.1153,-0.1211,-0.1262,-0.1427,-0.137,-0.1495,-0.149,-0.1429,-0.136,-0.1242,-0.1091,-0.0818,-0.0548,-0.0319,0.0069,0.0023,0.0277,0.0342,0.038,0.0394,0.0657,0.0709,0.0185,0.0183,0.0182,0.018,0,-0.1177,-0.1194,-0.1337,-0.1429,-0.1485,-0.161,-0.1691,-0.1723,-0.165,-0.1537,-0.1503,-0.119,-0.0799,-0.0509,-0.0125,0.0071,0.0506,0.0497,0.0555,0.0621,0.0953,0.0988,0.1289,0.142,0.0759,0.0763,0.0766,0,-0.1222,-0.129,-0.1503,-0.1644,-0.1703,-0.1855,-0.1922,-0.188,-0.1813,-0.1502,-0.1379,-0.1029,-0.0622,-0.006,0.0263,0.0636,0.0754,0.089,0.0822,0.1006,0.1092,0.1108,0.1195,0.0973,0.0977,0.0981,0.0984,0,-0.1337,-0.1413,-0.1581,-0.1857,-0.1997,-0.2066,-0.2079,-0.2026,-0.1783,-0.1552,-0.1022,-0.069,-0.0176,0.0329,0.0689,0.0904,0.1022,0.0979,0.115,0.1269,0.1321,0.1467,0.0814,0.1019,0.1015,0.1013,0.1011,0.1009,-0.1454,-0.1664,-0.1878,-0.213,-0.2225,-0.2104,-0.2001,-0.1809,-0.1514,-0.0909,-0.0654,-0.0009,0.0396,0.0942,0.1149,0.1448,0.1364,0.1554,0.1585,0.1587,0.1699,0.1142,0.1419,0.1418,0.1417,0.1416,0.1415,0,-0.1624,-0.1846,-0.2112,-0.2283,-0.2218,-0.2217,-0.1965,-0.1652,-0.107,-0.0574,0.0026,0.0756,0.1206,0.1468,0.18,0.2026,0.2046,0.2131,0.2155,0.2217,0.1728,0.1722,0.21,0.21,0.21,0.21,0.2099,0.2099,-0.1752,-0.2071,-0.2227,-0.2202,-0.2161,-0.1804,-0.1526,-0.1037,-0.0599,0.0308,0.0863,0.1258,0.1583,0.2128,0.2478,0.2515,0.2707,0.2698,0.2797,0.2429,0.2376,0.2325,0.2333,0.2833,0.2834,0.3289,0.3293,0.3296]}],[{"header":{"parameterUnit":"m.s-1","parameterCategory":2,"la1":30.2991,"la2":30.254,"lo1":-89.0895,"lo2":-89.0444,"dy":0.0017,"dx":0.0017,"nx":28,"ny":28,"refTime":"2025-05-27T21:00:00:Z","depth":"2","parameterNumber":2,"parameterNumberName":"U-component_of_CURRENTS"},"data":[0,0,0,0,0,0,0,0,0,0,0,0,0,0,0,0,0,0,0,0,0,0,0,0,0,0,0,0,0,0,0,0,0,0,0,0,0,0,0,0,0,0,0,0,0,0,0,0,0,0,0,0,0,0,0,0,0,0,-0.2986,-0.2986,0,-0.2988,-0.2987,-0.2987,-0.2988,-0.2988,-0.2988,-0.2988,-0.3006,-0.3007,-0.3007,0,0,0,0,0,0,0,0,0,0,0,0,0,-0.2904,-0.2905,-0.2986,-0.2986,-0.2986,-0.2988,-0.2987,-0.2987,-0.2987,-0.2988,-0.2988,-0.2989,-0.3006,-0.3007,-0.3007,0,0,0,0,0,0,0,0,0,0,0,0,0,-0.2923,-0.2906,-0.2986,-0.2989,-0.299,-0.2988,-0.2987,-0.2987,-0.2987,-0.2988,-0.2988,-0.2989,-0.3006,-0.3007,-0.3007,-0.2999,0,0,-0.3008,-0.3008,0,0,0,0,0,0,0,0,-0.2922,-0.2925,-0.2989,-0.2989,-0.299,-0.2991,-0.2965,-0.2993,-0.2987,-0.2985,-0.2988,-0.2989,-0.3005,-0.3005,-0.2999,-0.3,-0.3001,-0.3008,-0.3008,-0.3008,-0.3008,0,0,0,0,0,0,0,-0.292,-0.2925,-0.2983,-0.2989,-0.299,-0.2964,-0.2968,-0.297,-0.299,-0.2985,-0.2986,-0.2991,-0.3005,-0.2999,-0.3,-0.3001,-0.3008,-0.3008,-0.3008,-0.3008,-0.2967,-0.2966,0,0,0,0,0,0,-0.2931,-0.2924,-0.2983,-0.2983,-0.296,-0.2966,-0.297,-0.2987,-0.2989,-0.2991,-0.2991,-0.2992,-0.2998,-0.2999,-0.3,-0.3001,-0.3008,-0.3008,-0.3008,-0.2969,-0.2967,-0.2966,0,0,0,0,0,0,-0.293,-0.2937,-0.2983,-0.2955,-0.296,-0.2968,-0.2987,-0.2987,-0.2992,-0.2994,-0.2996,-0.2997,-0.2999,-0.3,-0.2993,-0.3001,-0.3008,-0.3009,-0.297,-0.2968,-0.2966,-0.2995,0,0,0,0,0,0,-0.2927,-0.2937,-0.2948,-0.2957,-0.2962,-0.299,-0.2987,-0.2987,-0.2996,-0.2996,-0.3,-0.3001,-0.2999,-0.2993,-0.2993,-0.3002,-0.3009,-0.2972,-0.2969,-0.2967,-0.2996,-0.2995,-0.2994,0,0,0,0,0,-0.2925,-0.2938,-0.2949,-0.2956,-0.298,-0.2991,-0.2991,-0.2994,-0.2996,-0.2999,-0.2988,-0.3002,-0.2978,-0.2992,-0.2993,-0.3002,-0.2973,-0.297,-0.2967,-0.2997,-0.2995,-0.2994,0,0,0,0,0,0,-0.2904,-0.294,-0.2952,-0.2975,-0.2989,-0.2993,-0.2994,-0.2999,-0.2993,-0.2992,-0.2991,-0.2992,-0.2991,-0.298,-0.2996,-0.2976,-0.2976,-0.2973,-0.2997,-0.2996,-0.2995,-0.2998,-0.3009,0,0,0,0,0,-0.2908,-0.2928,-0.2956,-0.2971,-0.2981,-0.2989,-0.2993,-0.3,-0.2998,-0.2997,-0.2998,-0.2986,-0.2977,-0.2975,-0.2968,-0.296,-0.2945,-0.296,-0.2959,-0.2959,-0.2958,-0.2934,-0.2932,-0.2956,-0.2957,-0.2957,0,0,-0.2902,-0.2925,-0.2935,-0.2968,-0.2976,-0.2987,-0.2992,-0.3003,-0.3007,-0.3,-0.2998,-0.2991,-0.2973,-0.2964,-0.2962,-0.296,-0.294,-0.2955,-0.2955,-0.2954,-0.2931,-0.2929,-0.2927,-0.2955,-0.2955,-0.2955,0,0,-0.2891,-0.2924,-0.2934,-0.2952,-0.2976,-0.2985,-0.2994,-0.3007,-0.3009,-0.3007,-0.2998,-0.2987,-0.298,-0.2963,-0.2954,-0.2937,-0.2939,-0.2938,-0.2937,-0.2914,-0.2913,-0.2912,-0.2885,-0.2881,-0.2933,-0.2933,-0.2933,0,-0.288,-0.2905,-0.2934,-0.2949,-0.2963,-0.2988,-0.2997,-0.3002,-0.3009,-0.3007,-0.301,-0.2983,-0.2975,-0.2955,-0.2946,-0.2939,-0.2925,-0.2953,-0.2916,-0.2914,-0.2912,-0.2886,-0.2881,-0.2934,-0.2934,-0.2934,-0.2934,0,-0.2872,-0.2899,-0.2905,-0.2938,-0.2956,-0.2969,-0.2993,-0.3003,-0.3012,-0.3013,-0.3005,-0.2986,-0.2969,-0.2964,-0.2952,-0.2933,-0.2927,-0.2926,-0.2929,-0.2912,-0.2884,-0.2879,-0.2936,-0.2935,-0.2935,-0.2935,0,0,-0.2821,-0.2889,-0.2888,-0.2912,-0.2955,-0.2967,-0.2983,-0.2999,-0.3007,-0.3007,-0.3006,-0.298,-0.2978,-0.2964,-0.2951,-0.2929,-0.2903,-0.2923,-0.2922,-0.2914,-0.2853,-0.2754,-0.2738,-0.2904,-0.2903,-0.2903,-0.2838,0,-0.2801,-0.2833,-0.287,-0.2896,-0.2917,-0.2958,-0.2972,-0.2991,-0.3004,-0.301,-0.2994,-0.2988,-0.2976,-0.2972,-0.2948,-0.2925,-0.289,-0.292,-0.2855,-0.2853,-0.2781,-0.2729,-0.2534,-0.2452,-0.2833,-0.2832,-0.2831,0,-0.2765,-0.2801,-0.2827,-0.2893,-0.2905,-0.2922,-0.2959,-0.2978,-0.2997,-0.3006,-0.3002,-0.3,-0.2975,-0.2965,-0.2907,-0.2931,-0.2887,-0.286,-0.2857,-0.2751,-0.2743,-0.2528,-0.2427,-0.2822,-0.2823,-0.2824,-0.2824,0,-0.2702,-0.2764,-0.2788,-0.2809,-0.2884,-0.2898,-0.2933,-0.2966,-0.2984,-0.3004,-0.3017,-0.2996,-0.2984,-0.294,-0.2884,-0.2901,-0.2813,-0.2829,-0.269,-0.2684,-0.2494,-0.2471,-0.2764,-0.2764,-0.2764,-0.2764,-0.2764,0,-0.266,-0.2674,-0.2765,-0.2776,-0.2801,-0.287,-0.289,-0.2922,-0.2969,-0.2969,-0.3009,-0.2989,-0.2977,-0.2931,-0.2882,-0.2758,-0.2804,-0.2671,-0.2651,-0.2496,-0.2475,-0.2782,-0.2786,-0.2762,-0.2762,-0.2763,-0.2763,0,-0.2568,-0.2633,-0.2662,-0.2746,-0.277,-0.2783,-0.2863,-0.2875,-0.2943,-0.2947,-0.2956,-0.2979,-0.291,-0.2879,-0.2797,-0.2735,-0.2644,-0.2583,-0.2399,-0.2357,-0.2536,-0.2541,-0.2431,-0.2427,-0.2423,-0.242,-0.2418,0,-0.2519,-0.2528,-0.2613,-0.2625,-0.2658,-0.2704,-0.2726,-0.2828,-0.2847,-0.291,-0.2893,-0.287,-0.2779,-0.2649,-0.2534,-0.2411,-0.2517,-0.2185,-0.217,-0.2505,-0.2497,-0.2508,-0.2518,-0.1933,-0.1927,-0.1922,-0.1917,0,-0.2411,-0.2444,-0.247,-0.2496,-0.2526,-0.2562,-0.2612,-0.2628,-0.2726,-0.2749,-0.2721,-0.2663,-0.2538,-0.2306,-0.2176,-0.2089,-0.2197,-0.2075,-0.2448,-0.2053,-0.2031,-0.2026,-0.2052,-0.1872,-0.1876,-0.1879,-0.1882,-0.1884,-0.2307,-0.2295,-0.2324,-0.2328,-0.2368,-0.2366,-0.2324,-0.2408,-0.2413,-0.2396,-0.2473,-0.2332,-0.2248,-0.1927,-0.1794,-0.1709,-0.1861,-0.1794,-0.1812,-0.1835,-0.1793,-0.1767,-0.155,-0.1553,-0.1555,-0.1557,-0.1559,0,-0.2154,-0.2149,-0.2148,-0.2131,-0.208,-0.2176,-0.219,-0.2118,-0.2061,-0.2117,-0.2082,-0.1812,-0.1638,-0.1574,-0.135,-0.1292,-0.1297,-0.1256,-0.1271,-0.1316,-0.1356,-0.1293,-0.0916,-0.0914,-0.0913,-0.0911,0,0,-0.2069,-0.2004,-0.1996,-0.1835,-0.1819,-0.1692,-0.1658,-0.1621,-0.1615,-0.154,-0.15,-0.1602,-0.1544,-0.1257,-0.1158,-0.1003,-0.1159,-0.0951,-0.1464,-0.1527,-0.1566,-0.1656,-0.1607,0,0,0,0,0]},{"header":{"parameterUnit":"m.s-1","parameterCategory":2,"la1":30.2991,"la2":30.254,"lo1":-89.0895,"lo2":-89.0444,"dy":0.0017,"dx":0.0017,"nx":28,"ny":28,"refTime":"2025-05-27T21:00:00:Z","depth":"2","parameterNumber":3,"parameterNumberName":"V-component_of_CURRENTS"},"data":[0,0,0,0,0,0,0,0,0,0,0,0,0,0,0,0,0,0,0,0,0,0,0,0,0,0,0,0,0,0,0,0,0,0,0,0,0,0,0,0,0,0,0,0,0,0,0,0,0,0,0,0,0,0,0,0,0,0,-0.0489,-0.0488,0,-0.0395,-0.0393,-0.0392,-0.0324,-0.0324,-0.0323,-0.0323,-0.0169,-0.0165,-0.0161,0,0,0,0,0,0,0,0,0,0,0,0,0,-0.0521,-0.0521,-0.0489,-0.0488,-0.0487,-0.0395,-0.0393,-0.0392,-0.0324,-0.0324,-0.0323,-0.0323,-0.017,-0.0166,-0.0161,0,0,0,0,0,0,0,0,0,0,0,0,0,-0.0473,-0.0521,-0.0489,-0.0444,-0.0439,-0.0395,-0.0393,-0.0391,-0.0324,-0.0324,-0.0323,-0.0323,-0.0172,-0.0166,-0.016,-0.0136,0,0,-0.0143,-0.0141,0,0,0,0,0,0,0,0,-0.0476,-0.0472,-0.0452,-0.0447,-0.0442,-0.0373,-0.0348,-0.0304,-0.0324,-0.0365,-0.0323,-0.0323,-0.0233,-0.0223,-0.0203,-0.0128,-0.0122,-0.0143,-0.0139,-0.0137,-0.0135,0,0,0,0,0,0,0,-0.0479,-0.0475,-0.0449,-0.0451,-0.0445,-0.0398,-0.0391,-0.0339,-0.0301,-0.0362,-0.0357,-0.0351,-0.023,-0.0209,-0.0199,-0.012,-0.0143,-0.0138,-0.0134,-0.0132,-0.0003,-0.0003,0,0,0,0,0,0,-0.0501,-0.0479,-0.0452,-0.0447,-0.0461,-0.0398,-0.039,-0.0394,-0.0302,-0.0289,-0.0351,-0.0348,-0.0219,-0.0206,-0.0193,-0.0145,-0.0137,-0.0131,-0.0128,-0.0003,-0.0003,-0.0003,0,0,0,0,0,0,-0.0503,-0.05,-0.0456,-0.0462,-0.0453,-0.0399,-0.0402,-0.0392,-0.0371,-0.0295,-0.028,-0.0342,-0.0218,-0.0201,-0.0154,-0.0139,-0.0129,-0.0124,-0.0003,-0.0003,-0.0003,-0.0057,0,0,0,0,0,0,-0.0504,-0.0502,-0.051,-0.0464,-0.0454,-0.0435,-0.0403,-0.0391,-0.0369,-0.0364,-0.0282,-0.0267,-0.0216,-0.0163,-0.0148,-0.0131,-0.0119,-0.0003,-0.0003,-0.0003,-0.0056,-0.0059,-0.0062,0,0,0,0,0,-0.0506,-0.0521,-0.0511,-0.0508,-0.0468,-0.0436,-0.0426,-0.0383,-0.0369,-0.0362,-0.0312,-0.027,-0.0152,-0.0159,-0.0141,-0.0122,-0.0003,-0.0003,-0.0003,-0.0054,-0.0058,-0.0062,0,0,0,0,0,0,-0.054,-0.0515,-0.0503,-0.0511,-0.0479,-0.0425,-0.0418,-0.0391,-0.0346,-0.0341,-0.0271,-0.0252,-0.0201,-0.0162,-0.0171,-0.0086,-0.0069,-0.0066,-0.0114,-0.0118,-0.0121,-0.0135,-0.0114,0,0,0,0,0,-0.0555,-0.056,-0.0523,-0.053,-0.0518,-0.047,-0.0452,-0.0425,-0.0381,-0.036,-0.0303,-0.0244,-0.0188,-0.0156,-0.0101,-0.0059,-0.0011,-0.0036,-0.0039,-0.0042,-0.0043,0.0032,0.0036,-0.0002,-0.0002,-0.0002,0,0,-0.0571,-0.0558,-0.0561,-0.0537,-0.051,-0.0495,-0.0457,-0.0437,-0.0417,-0.035,-0.0307,-0.0253,-0.018,-0.0129,-0.0103,-0.0094,-0.0006,-0.0042,-0.0045,-0.0044,0.0033,0.0036,0.004,-0.0002,-0.0002,-0.0002,0,0,-0.0603,-0.0595,-0.0606,-0.0584,-0.0552,-0.052,-0.0519,-0.0467,-0.0436,-0.0396,-0.0338,-0.0281,-0.0203,-0.0141,-0.0102,-0.0092,-0.0027,-0.0076,-0.0099,-0.0027,-0.0023,-0.0019,0.0044,0.0054,-0.0077,-0.0077,-0.0077,0,-0.0624,-0.0633,-0.0602,-0.0602,-0.0588,-0.0537,-0.0536,-0.0496,-0.0434,-0.0404,-0.0392,-0.0265,-0.0204,-0.0128,-0.0125,-0.0097,-0.0053,-0.0091,-0.0031,-0.0026,-0.0021,0.0043,0.0054,-0.008,-0.008,-0.0079,-0.0079,0,-0.0655,-0.0661,-0.0665,-0.0649,-0.0628,-0.0622,-0.0567,-0.0537,-0.0498,-0.0449,-0.0375,-0.0295,-0.0219,-0.0189,-0.0153,-0.0084,-0.0064,-0.0045,-0.0023,-0.0021,0.0046,0.006,-0.0084,-0.0083,-0.0082,-0.0081,0,0,-0.0708,-0.0693,-0.0695,-0.0695,-0.0655,-0.0641,-0.0607,-0.0555,-0.0522,-0.0458,-0.0408,-0.0313,-0.0267,-0.0221,-0.016,-0.0098,-0.0023,-0.0066,-0.0061,-0.0008,0.0131,0.0163,0.0181,0.0004,0.0006,0.0007,0.0162,0,-0.0743,-0.0766,-0.0737,-0.0744,-0.075,-0.0691,-0.0658,-0.0601,-0.0538,-0.0473,-0.0385,-0.0315,-0.0278,-0.024,-0.0174,-0.0059,0.0009,-0.0068,0.0124,0.0129,0.0156,0.0197,0.0168,0.0304,0.0175,0.0177,0.0179,0,-0.0782,-0.0793,-0.0818,-0.0793,-0.0786,-0.0775,-0.0714,-0.0674,-0.0568,-0.0515,-0.0435,-0.0361,-0.0259,-0.0232,-0.0044,-0.0098,0.0009,0.0094,0.0102,0.0161,0.0187,0.0283,0.0334,0.0202,0.02,0.0198,0.0197,0,-0.0845,-0.0844,-0.087,-0.0866,-0.0828,-0.0819,-0.0787,-0.0694,-0.065,-0.0542,-0.0499,-0.037,-0.0298,-0.0163,0.0003,-0.0015,0.0212,0.0215,0.0348,0.0351,0.038,0.0382,0.0356,0.0356,0.0356,0.0355,0.0355,0,-0.0899,-0.0915,-0.0906,-0.0923,-0.0931,-0.0878,-0.0852,-0.0794,-0.0701,-0.0642,-0.0532,-0.0456,-0.0277,-0.013,0.0008,0.0222,0.0223,0.0359,0.0402,0.0359,0.0358,0.0307,0.03,0.0361,0.036,0.0358,0.0357,0,-0.0965,-0.096,-0.0989,-0.0975,-0.0967,-0.0975,-0.0915,-0.0884,-0.079,-0.0712,-0.0685,-0.0506,-0.0309,-0.0123,0.0124,0.0239,0.0431,0.0509,0.0441,0.0473,0.0519,0.0507,0.0673,0.0675,0.0677,0.0679,0.0681,0,-0.1,-0.1028,-0.1044,-0.1064,-0.1063,-0.1055,-0.104,-0.0947,-0.0906,-0.0735,-0.0705,-0.0499,-0.0338,0.0026,0.0267,0.0529,0.0518,0.0652,0.0618,0.0531,0.0556,0.054,0.0525,0.0636,0.0637,0.0638,0.0639,0,-0.1065,-0.1075,-0.1102,-0.1149,-0.1159,-0.1151,-0.1123,-0.1106,-0.0978,-0.0891,-0.0729,-0.0586,-0.0219,0.0076,0.0413,0.0557,0.0601,0.0679,0.0638,0.0549,0.0507,0.0527,0.0512,0.0646,0.0646,0.0645,0.0645,0.0644,-0.1106,-0.1146,-0.1185,-0.1221,-0.1238,-0.1242,-0.1232,-0.1181,-0.1107,-0.0958,-0.0789,-0.0537,-0.0222,0.0256,0.0496,0.0716,0.0712,0.0761,0.0755,0.0748,0.0705,0.0668,0.083,0.083,0.083,0.0831,0.0831,0,-0.1151,-0.1192,-0.1244,-0.1282,-0.1307,-0.1296,-0.1273,-0.1225,-0.1147,-0.0975,-0.0798,-0.0426,-0.0084,0.0236,0.0598,0.0811,0.0779,0.0834,0.0751,0.0743,0.0736,0.0689,0.0812,0.0812,0.0812,0.0813,0,0,-0.1171,-0.1239,-0.1266,-0.1324,-0.1347,-0.1343,-0.133,-0.1249,-0.1111,-0.0927,-0.0729,-0.0485,-0.0056,0.0186,0.0461,0.0651,0.0634,0.0661,0.0657,0.0521,0.0511,0.0683,0.06,0,0,0,0,0]}],[{"header":{"parameterUnit":"m.s-1","parameterCategory":2,"la1":30.2991,"la2":30.254,"lo1":-89.0895,"lo2":-89.0444,"dy":0.0017,"dx":0.0017,"nx":28,"ny":28,"refTime":"2025-05-27T21:00:00:Z","depth":"4","parameterNumber":2,"parameterNumberName":"U-component_of_CURRENTS"},"data":[0,0,0,0,0,0,0,0,0,0,0,0,0,0,0,0,0,0,0,0,0,0,0,0,0,0,0,0,0,0,0,0,0,0,0,0,0,0,0,0,0,0,0,0,0,0,0,0,0,0,0,0,0,0,0,0,0,0,-0.2078,-0.2078,0,-0.2132,-0.2132,-0.2133,-0.2195,-0.2196,-0.2197,-0.2199,-0.2246,-0.2246,-0.2246,0,0,0,0,0,0,0,0,0,0,0,0,0,-0.1985,-0.1987,-0.2077,-0.2078,-0.2079,-0.2132,-0.2132,-0.2133,-0.2195,-0.2196,-0.2198,-0.2199,-0.2246,-0.2246,-0.2246,0,0,0,0,0,0,0,0,0,0,0,0,0,-0.2029,-0.1987,-0.2077,-0.2118,-0.2122,-0.2132,-0.2132,-0.2133,-0.2195,-0.2196,-0.2198,-0.22,-0.2246,-0.2246,-0.2246,-0.2215,0,0,-0.2247,-0.2247,0,0,0,0,0,0,0,0,-0.2027,-0.2032,-0.2111,-0.2115,-0.212,-0.216,-0.2117,-0.2161,-0.2194,-0.2165,-0.2199,-0.22,-0.2216,-0.2219,-0.2223,-0.2217,-0.2219,-0.2247,-0.2248,-0.2248,-0.2248,0,0,0,0,0,0,0,-0.2024,-0.203,-0.2097,-0.2112,-0.2117,-0.2119,-0.2127,-0.2125,-0.2179,-0.2168,-0.2173,-0.2181,-0.2219,-0.2223,-0.2225,-0.222,-0.2247,-0.2248,-0.2248,-0.2248,-0.2287,-0.2288,0,0,0,0,0,0,-0.2021,-0.2027,-0.2095,-0.2099,-0.2079,-0.212,-0.2129,-0.2144,-0.218,-0.2187,-0.218,-0.2184,-0.2221,-0.2224,-0.2227,-0.2292,-0.2248,-0.2248,-0.2248,-0.2286,-0.2287,-0.2288,0,0,0,0,0,0,-0.2019,-0.2027,-0.2093,-0.2065,-0.2074,-0.212,-0.2136,-0.2144,-0.2189,-0.2189,-0.2197,-0.2222,-0.2223,-0.2226,-0.2258,-0.2291,-0.2248,-0.2248,-0.2285,-0.2287,-0.2288,-0.2359,0,0,0,0,0,0,-0.2016,-0.2026,-0.2053,-0.2065,-0.2076,-0.2127,-0.2135,-0.2144,-0.219,-0.2197,-0.2226,-0.223,-0.2224,-0.2258,-0.2258,-0.2291,-0.2249,-0.2284,-0.2286,-0.2288,-0.2355,-0.2362,-0.2368,0,0,0,0,0,-0.2013,-0.2035,-0.2054,-0.2064,-0.2107,-0.2128,-0.2134,-0.2169,-0.2191,-0.2215,-0.2235,-0.2232,-0.2268,-0.2258,-0.2259,-0.2292,-0.2284,-0.2286,-0.2287,-0.2352,-0.2361,-0.2368,0,0,0,0,0,0,-0.2009,-0.2044,-0.2065,-0.2099,-0.2127,-0.214,-0.2168,-0.2189,-0.2223,-0.224,-0.2241,-0.2245,-0.2289,-0.2274,-0.2263,-0.2306,-0.2276,-0.2278,-0.2325,-0.2333,-0.2339,-0.233,-0.2249,0,0,0,0,0,-0.202,-0.205,-0.2078,-0.2109,-0.2126,-0.2154,-0.2175,-0.2199,-0.2221,-0.2241,-0.2262,-0.2277,-0.2288,-0.23,-0.2308,-0.2326,-0.2295,-0.2347,-0.2353,-0.2359,-0.2351,-0.2335,-0.2339,-0.2295,-0.2295,-0.2295,0,0,-0.2028,-0.2051,-0.207,-0.2111,-0.2137,-0.2165,-0.2172,-0.2214,-0.2244,-0.2237,-0.2297,-0.2307,-0.2299,-0.2329,-0.2346,-0.2326,-0.2355,-0.2362,-0.2367,-0.2355,-0.2337,-0.2342,-0.2345,-0.2296,-0.2296,-0.2295,0,0,-0.2038,-0.2081,-0.2105,-0.2133,-0.218,-0.2195,-0.2217,-0.2255,-0.2287,-0.233,-0.2336,-0.2362,-0.2387,-0.2385,-0.2383,-0.2424,-0.2395,-0.2438,-0.246,-0.2445,-0.2449,-0.2451,-0.2416,-0.2415,-0.2436,-0.2436,-0.2436,0,-0.205,-0.2084,-0.2116,-0.2145,-0.2174,-0.2214,-0.2245,-0.2275,-0.2324,-0.2341,-0.2363,-0.2401,-0.2407,-0.2418,-0.2441,-0.244,-0.242,-0.2435,-0.2454,-0.2456,-0.2457,-0.242,-0.2418,-0.2439,-0.2439,-0.2439,-0.2438,0,-0.2063,-0.2111,-0.2129,-0.2182,-0.2215,-0.2251,-0.2293,-0.2337,-0.2382,-0.2403,-0.2451,-0.2461,-0.2474,-0.249,-0.2482,-0.2498,-0.2477,-0.247,-0.2435,-0.2466,-0.2425,-0.2422,-0.2445,-0.2443,-0.2442,-0.2441,0,0,-0.2028,-0.2122,-0.2131,-0.217,-0.2242,-0.2263,-0.2322,-0.2367,-0.2398,-0.2455,-0.2484,-0.2519,-0.2529,-0.2525,-0.2525,-0.252,-0.2522,-0.2507,-0.2504,-0.2472,-0.2478,-0.2321,-0.2301,-0.2526,-0.2526,-0.2526,-0.2446,0,-0.2032,-0.2096,-0.214,-0.2207,-0.2243,-0.2302,-0.2345,-0.2394,-0.2439,-0.2479,-0.2499,-0.2529,-0.2539,-0.2553,-0.2553,-0.2534,-0.2516,-0.2543,-0.2452,-0.2448,-0.2305,-0.2293,-0.2525,-0.2443,-0.2442,-0.2441,-0.2441,0,-0.2016,-0.2067,-0.2137,-0.2224,-0.2245,-0.2291,-0.2361,-0.2405,-0.246,-0.2493,-0.2527,-0.2544,-0.2557,-0.256,-0.2532,-0.2554,-0.2518,-0.2497,-0.2494,-0.2315,-0.2283,-0.2404,-0.2433,-0.2434,-0.2434,-0.2435,-0.2435,0,-0.1957,-0.2056,-0.2116,-0.2149,-0.2253,-0.2295,-0.2346,-0.2411,-0.2442,-0.25,-0.2524,-0.2545,-0.2555,-0.2534,-0.25,-0.2522,-0.2449,-0.2466,-0.2283,-0.2271,-0.2409,-0.2407,-0.2424,-0.2424,-0.2424,-0.2425,-0.2425,0,-0.1922,-0.1971,-0.2103,-0.2134,-0.219,-0.2275,-0.2327,-0.2377,-0.2444,-0.2456,-0.2526,-0.2517,-0.2553,-0.252,-0.249,-0.2357,-0.2433,-0.2266,-0.2233,-0.2441,-0.2443,-0.2406,-0.2405,-0.2422,-0.2422,-0.2423,-0.2423,0,-0.1839,-0.1934,-0.2005,-0.2131,-0.2168,-0.2207,-0.2308,-0.233,-0.2417,-0.2434,-0.2453,-0.2497,-0.2442,-0.2439,-0.2384,-0.2312,-0.2222,-0.2152,-0.2354,-0.2337,-0.206,-0.2065,-0.194,-0.1934,-0.1928,-0.1924,-0.192,0,-0.1797,-0.1834,-0.1978,-0.201,-0.2072,-0.2147,-0.2181,-0.2294,-0.2312,-0.2387,-0.2369,-0.2364,-0.2365,-0.2147,-0.2176,-0.2074,-0.2054,-0.2,-0.2048,-0.2026,-0.2008,-0.2021,-0.2031,-0.1911,-0.191,-0.1908,-0.1907,0,-0.1708,-0.1783,-0.1838,-0.1898,-0.1957,-0.2005,-0.2071,-0.2067,-0.217,-0.2286,-0.2204,-0.2151,-0.2077,-0.2017,-0.194,-0.1881,-0.2038,-0.1944,-0.1956,-0.2001,-0.199,-0.198,-0.1997,-0.1888,-0.1891,-0.1893,-0.1894,0,-0.1633,-0.1646,-0.172,-0.1747,-0.1818,-0.1814,-0.1879,-0.1885,-0.1918,-0.2026,-0.1985,-0.1984,-0.2041,-0.1912,-0.1845,-0.1767,-0.1753,-0.1711,-0.1735,-0.1756,-0.1733,-0.1695,-0.145,0,0,0,0,0,-0.1545,-0.1529,-0.1549,-0.1563,-0.1625,-0.1655,-0.1769,-0.184,-0.1957,-0.1846,-0.1911,-0.1831,-0.1728,-0.1733,-0.1608,-0.1759,-0.1759,-0.1609,-0.1725,-0.1784,-0.1806,-0.1796,0,0,0,0,0,0,-0.148,-0.1503,-0.149,-0.1393,-0.1362,-0.1401,-0.1469,-0.1561,-0.1517,-0.1647,-0.1593,-0.1706,-0.1625,-0.174,-0.1555,-0.1558,-0.1593,-0.1634,-0.1629,-0.1772,-0.1791,-0.1809,-0.1807,0,0,0,0,0]},{"header":{"parameterUnit":"m.s-1","parameterCategory":2,"la1":30.2991,"la2":30.254,"lo1":-89.0895,"lo2":-89.0444,"dy":0.0017,"dx":0.0017,"nx":28,"ny":28,"refTime":"2025-05-27T21:00:00:Z","depth":"4","parameterNumber":3,"parameterNumberName":"V-component_of_CURRENTS"},"data":[0,0,0,0,0,0,0,0,0,0,0,0,0,0,0,0,0,0,0,0,0,0,0,0,0,0,0,0,0,0,0,0,0,0,0,0,0,0,0,0,0,0,0,0,0,0,0,0,0,0,0,0,0,0,0,0,0,0,-0.0376,-0.0376,0,-0.0327,-0.0327,-0.0326,-0.0287,-0.0287,-0.0287,-0.0287,-0.0208,-0.0207,-0.0205,0,0,0,0,0,0,0,0,0,0,0,0,0,-0.0373,-0.0374,-0.0377,-0.0376,-0.0376,-0.0327,-0.0326,-0.0326,-0.0287,-0.0287,-0.0287,-0.0287,-0.0209,-0.0207,-0.0204,0,0,0,0,0,0,0,0,0,0,0,0,0,-0.0353,-0.0374,-0.0377,-0.0352,-0.035,-0.0328,-0.0326,-0.0325,-0.0287,-0.0287,-0.0287,-0.0286,-0.021,-0.0207,-0.0204,-0.0192,0,0,-0.0195,-0.0194,0,0,0,0,0,0,0,0,-0.0354,-0.0352,-0.0356,-0.0354,-0.0351,-0.0315,-0.0297,-0.028,-0.0287,-0.0309,-0.0287,-0.0286,-0.0243,-0.0237,-0.0226,-0.0188,-0.0185,-0.0195,-0.0193,-0.0192,-0.0191,0,0,0,0,0,0,0,-0.0355,-0.0354,-0.0355,-0.0356,-0.0353,-0.0322,-0.0319,-0.0293,-0.0276,-0.0307,-0.0304,-0.0302,-0.0241,-0.0229,-0.0224,-0.0184,-0.0195,-0.0193,-0.0191,-0.019,-0.0107,-0.0107,0,0,0,0,0,0,-0.037,-0.0356,-0.0356,-0.0354,-0.0354,-0.0323,-0.0319,-0.0325,-0.0276,-0.027,-0.0303,-0.0301,-0.0234,-0.0227,-0.0221,-0.0185,-0.0192,-0.0189,-0.0188,-0.0108,-0.0107,-0.0107,0,0,0,0,0,0,-0.037,-0.0371,-0.0358,-0.0355,-0.0351,-0.0324,-0.033,-0.0324,-0.0316,-0.0274,-0.0266,-0.0301,-0.0233,-0.0225,-0.0202,-0.0182,-0.0188,-0.0186,-0.0108,-0.0108,-0.0107,-0.0124,0,0,0,0,0,0,-0.037,-0.0371,-0.0382,-0.0356,-0.0352,-0.0351,-0.033,-0.0324,-0.0316,-0.0313,-0.027,-0.0262,-0.0233,-0.0207,-0.0199,-0.0178,-0.0183,-0.0109,-0.0108,-0.0107,-0.0124,-0.0124,-0.0124,0,0,0,0,0,-0.037,-0.0386,-0.0383,-0.0383,-0.0368,-0.0352,-0.0347,-0.0324,-0.0317,-0.0315,-0.0287,-0.0264,-0.0195,-0.0205,-0.0196,-0.0173,-0.0109,-0.0108,-0.0107,-0.0124,-0.0124,-0.0124,0,0,0,0,0,0,-0.0392,-0.0383,-0.0379,-0.0393,-0.0377,-0.0346,-0.0346,-0.0331,-0.0308,-0.0307,-0.0266,-0.0256,-0.0223,-0.0203,-0.0214,-0.0147,-0.0145,-0.0142,-0.0161,-0.0161,-0.0161,-0.0162,-0.0181,0,0,0,0,0,-0.0404,-0.0414,-0.0395,-0.0408,-0.0403,-0.0377,-0.0369,-0.0354,-0.033,-0.032,-0.0288,-0.0251,-0.0211,-0.0193,-0.0159,-0.0132,-0.0096,-0.0109,-0.0109,-0.0109,-0.0104,-0.0031,-0.0023,-0.0103,-0.0103,-0.0103,0,0,-0.0417,-0.0414,-0.042,-0.0413,-0.04,-0.0391,-0.0371,-0.0365,-0.0348,-0.0315,-0.0287,-0.0253,-0.0205,-0.0167,-0.015,-0.0148,-0.0071,-0.0108,-0.0108,-0.0103,-0.0029,-0.0021,-0.0014,-0.0102,-0.0103,-0.0103,0,0,-0.0441,-0.0446,-0.0457,-0.0445,-0.0432,-0.0411,-0.0413,-0.0384,-0.0364,-0.0341,-0.0301,-0.0257,-0.0216,-0.016,-0.0131,-0.0112,-0.0074,-0.0106,-0.0103,-0.0033,-0.0025,-0.0018,0.0022,0.0033,-0.0104,-0.0104,-0.0104,0,-0.0458,-0.0467,-0.0456,-0.0457,-0.0448,-0.0423,-0.042,-0.0395,-0.036,-0.0333,-0.0338,-0.0241,-0.0203,-0.0128,-0.0121,-0.0108,-0.0079,-0.0108,-0.0032,-0.0024,-0.0016,0.0024,0.0036,-0.0105,-0.0105,-0.0105,-0.0104,0,-0.0478,-0.0486,-0.0491,-0.0482,-0.0469,-0.0467,-0.0431,-0.0411,-0.0389,-0.0352,-0.0289,-0.0237,-0.0175,-0.0152,-0.0133,-0.0054,-0.0056,-0.0042,-0.0033,-0.0009,0.0031,0.0044,-0.0106,-0.0105,-0.0105,-0.0105,0,0,-0.0515,-0.0508,-0.0511,-0.0505,-0.0482,-0.0471,-0.0443,-0.0398,-0.0366,-0.0327,-0.0277,-0.0201,-0.017,-0.0134,-0.0092,-0.0032,0.0042,-0.0023,-0.0019,0.0015,0.0175,0.0132,0.0142,0.0066,0.0068,0.007,0.0176,0,-0.0534,-0.0545,-0.0529,-0.0524,-0.0522,-0.0484,-0.0455,-0.0408,-0.0364,-0.031,-0.0239,-0.0182,-0.0162,-0.0133,-0.0068,0.0011,0.0077,0.001,0.0149,0.0153,0.0112,0.0157,0.0078,0.0186,0.0189,0.0191,0.0193,0,-0.0555,-0.0558,-0.057,-0.0536,-0.0529,-0.0521,-0.0462,-0.0428,-0.0343,-0.0306,-0.0237,-0.0186,-0.0095,-0.0086,0.0068,0.0019,0.0098,0.0158,0.0164,0.0142,0.0136,0.0163,0.0217,0.0215,0.0213,0.0212,0.021,0,-0.0586,-0.0578,-0.059,-0.0584,-0.0548,-0.0538,-0.0509,-0.0434,-0.0398,-0.0306,-0.0279,-0.0162,-0.0115,0.0001,0.0105,0.0095,0.0265,0.0274,0.0317,0.0313,0.0326,0.0318,0.0406,0.0406,0.0405,0.0405,0.0405,0,-0.0607,-0.0613,-0.0611,-0.0618,-0.0612,-0.0569,-0.054,-0.0491,-0.042,-0.0382,-0.0287,-0.0239,-0.0091,0.0011,0.0116,0.024,0.0279,0.0329,0.0349,0.0313,0.0302,0.0334,0.0325,0.0409,0.0408,0.0407,0.0407,0,-0.0639,-0.0642,-0.0655,-0.0639,-0.0635,-0.0632,-0.0589,-0.0564,-0.049,-0.0443,-0.0422,-0.0289,-0.0159,-0.0017,0.0175,0.0242,0.0376,0.0418,0.035,0.0362,0.0375,0.0364,0.0484,0.0484,0.0484,0.0483,0.0483,0,-0.0653,-0.0672,-0.0689,-0.0708,-0.071,-0.0698,-0.0693,-0.0617,-0.0595,-0.0479,-0.0469,-0.0327,-0.0235,-0.0002,0.0154,0.0359,0.0386,0.0449,0.0436,0.0382,0.039,0.0378,0.0367,0.0483,0.0483,0.0482,0.0482,0,-0.0679,-0.0702,-0.0718,-0.0765,-0.0784,-0.0784,-0.0773,-0.0759,-0.0672,-0.0611,-0.05,-0.0358,-0.0207,-0.0019,0.0138,0.0285,0.0402,0.0446,0.0448,0.0437,0.0381,0.0386,0.0376,0.0481,0.0481,0.0482,0.0482,0,-0.0703,-0.0729,-0.0771,-0.0802,-0.0842,-0.0866,-0.0841,-0.0801,-0.0753,-0.0625,-0.0591,-0.0399,-0.0273,-0.0055,0.0089,0.0225,0.0264,0.0301,0.0312,0.0315,0.0227,0.0129,0.0182,0,0,0,0,0,-0.0716,-0.0753,-0.0798,-0.0838,-0.0887,-0.0902,-0.0895,-0.0861,-0.0786,-0.0724,-0.0649,-0.0504,-0.0256,-0.0133,-0.0004,0.0071,0.0272,0.0225,0.0315,0.0475,0.0476,0.0398,0,0,0,0,0,0,-0.0725,-0.078,-0.0802,-0.087,-0.0906,-0.0945,-0.0946,-0.0895,-0.084,-0.0747,-0.0613,-0.0496,-0.0257,-0.034,-0.0011,0.0037,0.0106,0.0359,0.0361,0.0474,0.0476,0.0477,0.0396,0,0,0,0,0]}]]